Location: Gradaro
(45.0833°N, 10.8833°E)
Time: 22:19:59
(UTC+00:00)

USA 305 - Pass Details

Date: 29 November 2020
Orbit: 566 x 578 km, 54.0° (Epoch: 11 January)

Event Time Altitude Azimuth Distance (km) Brightness Sun altitude
Exits shadow 05:40:26 10° 313° (NW) 1,880 5.0 -9.1°
Maximum altitude 05:44:21 34° 19° (NNE) 962 4.0 -8.5°
Drops below altitude 10° 05:48:18 10° 85° (E) 1,892 6.7 -7.8°
Sets 05:50:43 0° 95° (E) 2,789 8.1 -7.5°
